Hillsboro, TX

8:00 PM CDT on August 22, 2017 (GMT -0500)
Hillsboro

Weather History for KINJ - November, 2012

Change the Weather History Date:

Tuesday, November 13, 2012

  Actual Average (KACT) Record (KACT)
Temperature  
Mean Temperature 44 °F -  
Max Temperature 57 °F 66 °F 87 °F (1951)
Min Temperature 32 °F 47 °F 25 °F (1911)
Degree Days  
Heating Degree Days 20    
Moisture  
Dew Point 24 °F    
Average Humidity 41    
Maximum Humidity 64    
Minimum Humidity 26    
Precipitation  
Precipitation 0.00 in - - ()
Sea Level Pressure  
Sea Level Pressure 30.42 in    
Wind  
Wind Speed 4 mph (East)    
Max Wind Speed 12 mph    
Max Gust Speed 17 mph    
Visibility 8 miles    
Events      
Averages and records for this station are not official NWS values.
T = Trace of Precipitation, MM = Missing Value Source: NWS Daily Summary

Daily Weather History Graph

Daily Weather History Graph

Search for Another Location

Airport or City:

Trip Planner

Search our weather history database for the weather conditions in past years. The results will help you decide how hot, cold, wet, or windy it might be!

Date:

Astronomy

Nov. 13, 2012 Rise Set
Actual Time 6:55 AM CST 5:29 PM CST
Civil Twilight 6:30 AM CST 5:55 PM CST
Nautical Twilight 6:00 AM CST 6:24 PM CST
Astronomical Twilight 5:31 AM CST 6:53 PM CST
Moon 6:34 AM CST (11/13) 5:25 PM CST (11/13)
Length of Visible Light 11h 25m
Length of Day
10h 33m
Waning Crescent, 0% of the Moon is Illuminated
Nov 13
Waning Crescent
Nov 13
New
Nov 20
First Quarter
Nov 28
Full
Dec 6
Last Quarter

Hourly Weather History & Observations

Time (CST) Temp. Windchill Dew Point Humidity Pressure Visibility Wind Dir Wind Speed Gust Speed Precip Events Conditions
12:35 AM 32.0 °F - 19.4 °F 60% 30.50 in 10.0 mi Calm Calm - N/A   Clear
12:55 AM 32.0 °F - 19.4 °F 60% 30.50 in 10.0 mi Calm Calm - N/A   Clear
1:55 AM 32.0 °F - 17.6 °F 55% 30.49 in 10.0 mi Calm Calm - N/A   Clear
2:15 AM 33.8 °F - 21.2 °F 60% 30.49 in 10.0 mi Calm Calm - N/A   Clear
2:35 AM 32.0 °F - 21.2 °F 64% 30.48 in 10.0 mi Calm Calm - N/A   Clear
2:55 AM 33.8 °F - 21.2 °F 60% 30.48 in 10.0 mi Calm Calm - N/A   Clear
3:15 AM 32.0 °F - 21.2 °F 64% 30.48 in 10.0 mi Calm Calm - N/A   Clear
3:35 AM 32.0 °F - 19.4 °F 60% 30.48 in 10.0 mi Calm Calm - N/A   Clear
3:55 AM 33.8 °F - 21.2 °F 60% 30.47 in 10.0 mi Calm Calm - N/A   Clear
4:15 AM 33.8 °F 29.6 °F 21.2 °F 60% 30.47 in 10.0 mi NE 4.6 mph - N/A   Clear
4:35 AM 33.8 °F 28.6 °F 21.2 °F 60% 30.47 in 10.0 mi NE 5.8 mph - N/A   Clear
4:55 AM 37.4 °F 31.4 °F 23.0 °F 56% 30.47 in 5.0 mi NE 8.1 mph - N/A   Haze
5:15 AM 37.4 °F 30.8 °F 23.0 °F 56% 30.47 in 4.0 mi NE 9.2 mph - N/A   Haze
5:35 AM 39.2 °F 32.5 °F 23.0 °F 52% 30.47 in 2.5 mi NE 10.4 mph - N/A   Unknown
6:15 AM 39.2 °F 33.0 °F 23.0 °F 52% 30.48 in 2.5 mi ENE 9.2 mph - N/A   Haze
6:35 AM 39.2 °F 33.6 °F 23.0 °F 52% 30.49 in 3.0 mi ENE 8.1 mph - N/A   Haze
6:55 AM 39.2 °F 33.6 °F 23.0 °F 52% 30.50 in 2.5 mi ENE 8.1 mph - N/A   Haze
7:15 AM 39.2 °F 33.6 °F 23.0 °F 52% 30.50 in 2.5 mi ENE 8.1 mph - N/A   Haze
7:35 AM 41.0 °F 35.2 °F 24.8 °F 53% 30.50 in 3.0 mi ENE 9.2 mph - N/A   Haze
7:55 AM 41.0 °F 36.4 °F 24.8 °F 53% 30.51 in 2.5 mi ENE 6.9 mph - N/A   Haze
8:15 AM 44.6 °F 40.7 °F 26.6 °F 49% 30.51 in 1.0 mi ENE 6.9 mph - N/A   Haze
8:35 AM 44.6 °F 40.7 °F 28.4 °F 53% 30.51 in 1.2 mi ENE 6.9 mph - N/A   Haze
8:55 AM 46.4 °F 42.4 °F 28.4 °F 50% 30.51 in 10.0 mi ENE 8.1 mph - N/A   Clear
9:15 AM 48.2 °F - 28.4 °F 46% 30.51 in 7.0 mi ENE 4.6 mph - N/A   Clear
9:35 AM 50.0 °F - 24.8 °F 37% 30.51 in 7.0 mi East 6.9 mph - N/A   Clear
10:55 AM 53.6 °F - 23.0 °F 30% 30.48 in 10.0 mi East 8.1 mph - N/A   Unknown
11:15 AM 53.6 °F - 24.8 °F 33% 30.47 in 10.0 mi East 8.1 mph - N/A   Clear
11:35 AM 55.4 °F - 24.8 °F 31% 30.46 in 10.0 mi ESE 11.5 mph - N/A   Clear
11:55 AM 55.4 °F - 23.0 °F 29% 30.45 in 7.0 mi East 9.2 mph - N/A   Clear
12:15 PM 55.4 °F - 23.0 °F 29% 30.44 in 5.0 mi ENE 5.8 mph 16.1 mph N/A   Haze
12:55 PM 57.2 °F - 24.8 °F 29% 30.41 in 7.0 mi SE 6.9 mph 17.3 mph N/A   Clear
1:15 PM 57.2 °F - 24.8 °F 29% 30.40 in 10.0 mi ESE 5.8 mph - N/A   Clear
1:35 PM 57.2 °F - 23.0 °F 27% 30.38 in 10.0 mi Calm Calm - N/A   Clear
1:55 PM 55.4 °F - 23.0 °F 29% 30.37 in 7.0 mi SSE 4.6 mph - N/A   Clear
2:15 PM 55.4 °F - 24.8 °F 31% 30.37 in 5.0 mi Calm Calm - N/A   Haze
2:35 PM 57.2 °F - 23.0 °F 27% 30.36 in 3.0 mi SE 4.6 mph - N/A   Haze
2:55 PM 57.2 °F - 23.0 °F 27% 30.36 in 10.0 mi SE 5.8 mph - N/A   Clear
3:15 PM 57.2 °F - 23.0 °F 27% 30.36 in 10.0 mi SE 4.6 mph - N/A   Clear
3:35 PM 55.4 °F - 21.2 °F 26% 30.36 in 7.0 mi SE 3.5 mph - N/A   Clear
3:55 PM 55.4 °F - 21.2 °F 26% 30.36 in 10.0 mi ESE 4.6 mph - N/A   Clear
4:15 PM 55.4 °F - 21.2 °F 26% 30.36 in 7.0 mi ESE 4.6 mph - N/A   Clear
4:35 PM 55.4 °F - 21.2 °F 26% 30.36 in 10.0 mi SE 5.8 mph - N/A   Clear
4:55 PM 55.4 °F - 21.2 °F 26% 30.36 in 10.0 mi SSE 5.8 mph - N/A   Clear
5:15 PM 53.6 °F - 21.2 °F 28% 30.35 in 10.0 mi ESE 4.6 mph - N/A   Scattered Clouds
5:35 PM 53.6 °F - 21.2 °F 28% 30.35 in 7.0 mi East 4.6 mph - N/A   Scattered Clouds
5:55 PM 53.6 °F - 21.2 °F 28% 30.34 in 10.0 mi East 4.6 mph - N/A   Scattered Clouds
6:15 PM 53.6 °F - 23.0 °F 30% 30.34 in 7.0 mi East 3.5 mph - N/A   Scattered Clouds
6:35 PM 51.8 °F - 23.0 °F 33% 30.35 in 7.0 mi East 4.6 mph - N/A   Scattered Clouds
6:55 PM 51.8 °F - 24.8 °F 35% 30.36 in 7.0 mi East 4.6 mph - N/A   Mostly Cloudy
7:15 PM 51.8 °F - 24.8 °F 35% 30.36 in 7.0 mi East 5.8 mph - N/A   Mostly Cloudy
7:35 PM 51.8 °F - 26.6 °F 38% 30.37 in 4.0 mi ENE 4.6 mph - N/A   Haze
7:55 PM 51.8 °F - 26.6 °F 38% 30.37 in 4.0 mi East 6.9 mph - N/A   Haze
8:15 PM 51.8 °F - 26.6 °F 38% 30.36 in 10.0 mi East 5.8 mph - N/A   Overcast
8:35 PM 51.8 °F - 26.6 °F 38% 30.37 in 10.0 mi ENE 5.8 mph - N/A   Mostly Cloudy
8:55 PM 51.8 °F - 26.6 °F 38% 30.37 in 10.0 mi East 6.9 mph - N/A   Overcast
9:15 PM 51.8 °F - 26.6 °F 38% 30.37 in 10.0 mi East 5.8 mph - N/A   Scattered Clouds
9:35 PM 51.8 °F - 26.6 °F 38% 30.38 in 10.0 mi East 5.8 mph - N/A   Mostly Cloudy
9:55 PM 51.8 °F - 26.6 °F 38% 30.38 in 10.0 mi East 5.8 mph - N/A   Overcast
10:15 PM 51.8 °F - 26.6 °F 38% 30.38 in 10.0 mi East 5.8 mph - N/A   Overcast
10:35 PM 51.8 °F - 26.6 °F 38% 30.38 in 10.0 mi East 6.9 mph - N/A   Overcast
10:55 PM 50.0 °F - 26.6 °F 40% 30.38 in 10.0 mi East 8.1 mph - N/A   Overcast
11:15 PM 50.0 °F - 26.6 °F 40% 30.38 in 10.0 mi East 6.9 mph - N/A   Mostly Cloudy
11:35 PM 50.0 °F - 28.4 °F 43% 30.38 in 10.0 mi East 6.9 mph - N/A   Mostly Cloudy
11:55 PM 50.0 °F - 28.4 °F 43% 30.38 in 10.0 mi East 5.8 mph - N/A   Overcast